N1HRK Weather Reports


time (UTC)temp
F
wind
direction
speed
knots
gust
knots
rain 1hr
in
rain 24hr
in
rain mn
in
humidity
%
barometer
mb
20260506231204 55 260 4.3 7.8 0.05 0.19 0.19 97 1007.4
20260506230204 56 236 4.3 7.0 0.06 0.18 0.18 97 1007.4
20260506225203 55 276 4.3 8.7 0.07 0.18 0.18 97 1007.4
20260506224203 55 231 4.3 7.0 0.08 0.18 0.18 96 1007.2
20260506223204 56 252 4.3 6.1 0.09 0.18 0.18 96 1007.3
20260506222204 55 239 5.2 7.0 0.09 0.16 0.17 96 1007.3
20260506221203 55 211 2.6 9.6 0.07 0.14 0.14 96 1007.4
20260506220203 55 232 3.5 5.2 0.05 0.12 0.12 96 1007.5
20260506215234 56 260 2.6 7.0 0.04 0.11 0.11 96 1007.5
20260506215202 56 243 4.3 7.0 0.04 0.11 0.11 95 1007.6
20260506214204 56 242 4.3 7.8 0.03 0.10 0.10 95 1007.8
20260506213233 56 217 4.3 5.2 0.03 0.09 0.09 95 1007.8
20260506213202 56 257 3.5 6.1 0.03 0.09 0.09 95 1007.8
20260506212203 56 246 2.6 9.6 0.02 0.08 0.08 94 1008.0
20260506211204 56 239 3.5 7.0 0.02 0.08 0.08 94 1008.0
20260506210202 57 174 3.5 7.8 0.01 0.07 0.07 93 1008.1
20260506205203 56 221 6.1 9.6 0.02 0.07 0.07 95 1008.0
20260506204202 56 235 5.2 7.0 0.02 0.07 0.07 94 1008.1
20260506203204 56 225 5.2 7.0 0.02 0.06 0.07 93 1008.2
20260506202204 57 249 6.1 7.8 0.03 0.06 0.06 93 1008.2
20260506201203 57 263 3.5 8.7 0.06 0.06 0.06 93 1008.4
20260506200203 57 253 4.3 10.4 0.06 0.06 0.06 93 1008.4
20260506195233 57 240 6.1 8.7 0.05 0.05 0.05 92 1008.5
20260506195202 57 240 6.1 8.7 0.05 0.05 0.05 92 1008.5
20260506194204 58 202 3.5 8.7 0.05 0.05 0.05 92 1008.6
20260506193203 58 240 5.2 7.0 0.05 0.05 0.05 92 1008.6
20260506192240 58 240 3.5 6.1 0.03 0.03 0.03 90 1008.7
20260506192204 58 240 3.5 6.1 0.03 0.03 0.03 90 1008.7
20260506191233 59 248 3.5 11.3 0.01 0.01 0.01 88 1008.9
20260506191202 59 248 3.5 11.3 0.01 0.01 0.01 88 1008.9
20260506190203 60 233 6.1 12.2 0.00 0.00 0.00 85 1009.0
20260506185233 60 245 7.0 11.3 0.00 0.00 0.00 80 1009.1
20260506185202 60 245 7.0 11.3 0.00 0.00 0.00 80 1009.1
20260506184202 60 262 4.3 9.6 0.00 0.00 0.00 76 1009.2
20260506183202 61 225 4.3 10.4 0.00 0.00 0.00 76 1009.4
20260506182203 62 283 2.6 11.3 0.00 0.00 0.00 74 1009.4
20260506181202 62 200 4.3 13.0 0.00 0.00 0.00 72 1009.5
20260506180204 62 229 7.0 8.7 0.00 0.00 0.00 74 1009.5
20260506175203 62 243 7.0 10.4 0.00 0.00 0.00 74 1009.6
20260506174202 63 228 3.5 8.7 0.00 0.00 0.00 71 1009.9
20260506173203 64 284 3.5 8.7 0.00 0.00 0.00 71 1009.8
20260506172202 64 229 3.5 7.8 0.00 0.00 0.00 71 1010.2
20260506171203 63 246 6.1 12.2 0.00 0.00 0.00 71 1010.1
20260506170203 64 274 5.2 9.6 0.00 0.00 0.00 70 1010.0
20260506165204 64 271 5.2 9.6 0.00 0.00 0.00 70 1010.1
20260506164203 64 198 6.1 11.3 0.00 0.00 0.00 70 1010.3
20260506163204 64 255 5.2 9.6 0.00 0.00 0.00 72 1010.6
20260506162204 63 253 4.3 9.6 0.00 0.00 0.00 74 1010.7
20260506161203 62 208 5.2 13.0 0.00 0.00 0.00 73 1010.8
20260506160203 63 236 5.2 10.4 0.00 0.00 0.00 72 1011.0
20260506155203 63 245 7.8 9.6 0.00 0.00 0.00 71 1011.2
20260506154202 64 208 5.2 9.6 0.00 0.00 0.00 67 1011.0
20260506153203 65 233 7.8 12.2 0.00 0.00 0.00 66 1010.8
20260506152234 65 225 12.2 13.0 0.00 0.00 0.00 68 1011.2
20260506152203 65 225 12.2 13.0 0.00 0.00 0.00 68 1011.2
20260506151203 64 271 3.5 10.4 0.00 0.00 0.00 68 1011.2
20260506150204 62 263 7.0 11.3 0.00 0.00 0.00 70 1011.2
20260506145204 64 233 7.8 10.4 0.00 0.00 0.00 71 1011.5
20260506144203 64 278 7.0 9.6 0.00 0.00 0.00 70 1011.2
20260506143203 64 256 7.0 12.2 0.00 0.00 0.00 69 1011.3
20260506142203 63 235 3.5 10.4 0.00 0.00 0.00 71 1011.4
20260506141203 64 274 2.6 11.3 0.00 0.00 0.00 70 1011.4
20260506140203 64 242 4.3 7.0 0.00 0.00 0.00 73 1011.3
20260506135204 63 253 2.6 9.6 0.00 0.00 0.00 74 1010.8
20260506134203 63 260 7.0 12.2 0.00 0.00 0.00 73 1011.2
20260506133204 63 252 6.1 10.4 0.00 0.00 0.00 72 1011.4
20260506132234 63 263 3.5 7.0 0.00 0.00 0.00 73 1011.5
20260506132203 63 210 3.5 10.4 0.00 0.00 0.00 72 1011.5
20260506131203 62 249 3.5 8.7 0.00 0.00 0.00 76 1011.6
20260506130204 61 235 4.3 7.0 0.00 0.00 0.00 77 1011.7
20260506125204 61 233 3.5 5.2 0.00 0.00 0.00 78 1011.7
20260506124232 61 176 5.2 7.8 0.00 0.00 0.00 79 1011.7
20260506124202 61 242 3.5 6.1 0.00 0.00 0.00 79 1011.8
20260506123235 61 239 2.6 5.2 0.00 0.00 0.00 79 1011.6
20260506123203 61 239 2.6 5.2 0.00 0.00 0.00 79 1011.6
20260506122234 60 232 4.3 7.8 0.00 0.00 0.00 79 1011.6
20260506122203 60 222 4.3 7.8 0.00 0.00 0.00 80 1011.7
20260506121204 60 260 6.1 6.1 0.00 0.00 0.00 81 1011.8
20260506120203 59 294 3.5 6.1 0.00 0.00 0.00 82 1011.8
20260506115203 59 259 4.3 8.7 0.00 0.00 0.00 84 1011.9
20260506114203 59 256 3.5 5.2 0.00 0.00 0.00 85 1012.0
20260506113232 58 278 5.2 7.0 0.00 0.00 0.00 85 1012.2
20260506113202 58 231 2.6 7.0 0.00 0.00 0.00 85 1012.2
20260506112203 58 246 5.2 6.1 0.00 0.00 0.00 86 1012.2
20260506111203 58 250 6.1 8.7 0.00 0.00 0.00 86 1012.2
20260506110203 57 232 5.2 9.6 0.00 0.00 0.00 86 1012.1
20260506105202 58 271 3.5 6.1 0.00 0.00 0.00 86 1012.0
20260506104234 58 243 5.2 8.7 0.00 0.00 0.00 86 1011.9
20260506104203 58 243 5.2 8.7 0.00 0.00 0.00 86 1011.9
20260506103203 58 239 5.2 7.8 0.00 0.00 0.00 87 1011.8
20260506102203 57 253 8.7 9.6 0.00 0.00 0.00 87 1011.8
20260506101203 58 207 5.2 8.7 0.00 0.00 0.00 87 1011.7
20260506100203 57 212 6.1 12.2 0.00 0.00 0.00 87 1011.7
20260506095202 58 252 6.1 7.8 0.00 0.00 0.00 88 1011.5
20260506094203 58 253 4.3 7.8 0.00 0.00 0.00 88 1011.7
20260506093203 58 211 2.6 9.6 0.00 0.00 0.00 88 1011.6
20260506092202 58 238 7.0 7.0 0.00 0.00 0.00 88 1011.8
20260506091204 57 263 7.0 10.4 0.00 0.00 0.00 88 1011.7
20260506090203 58 238 8.7 11.3 0.00 0.00 0.00 88 1011.7
20260506085203 57 228 6.1 8.7 0.00 0.00 0.00 88 1011.9
20260506084202 57 231 1.7 7.0 0.00 0.00 0.00 88 1012.0
20260506083235 58 240 6.1 12.2 0.00 0.00 0.00 87 1012.1
20260506083204 58 240 6.1 12.2 0.00 0.00 0.00 87 1012.1
20260506082203 58 236 7.8 12.2 0.00 0.00 0.00 87 1012.0
20260506081203 57 264 5.2 8.7 0.00 0.00 0.00 87 1012.1
20260506080204 58 260 3.5 7.0 0.00 0.00 0.00 87 1012.2
20260506073204 58 238 5.2 8.7 0.00 0.00 0.00 86 1012.1
20260506072204 59 235 7.0 10.4 0.00 0.00 0.00 85 1012.0
20260506071202 59 246 9.6 11.3 0.00 0.00 0.00 85 1011.9
20260506070203 59 195 3.5 8.7 0.00 0.00 0.00 85 1011.9
20260506062203 59 253 4.3 10.4 0.00 0.00 0.00 84 1011.9
20260506061204 59 250 5.2 8.7 0.00 0.00 0.00 84 1012.1
20260506060203 58 236 7.0 9.6 0.00 0.00 0.00 84 1012.0
20260506051203 59 257 7.0 11.3 0.00 0.00 0.00 82 1012.3
20260506050204 58 252 9.6 13.0 0.00 0.00 0.00 82 1012.3
20260506044202 58 278 5.2 9.6 0.00 0.00 0.00 82 1012.5
20260506043203 58 256 7.0 13.0 0.00 0.00 0.00 82 1012.4
20260506042203 58 238 10.4 12.2 0.00 0.00 0.00 82 1012.4
20260506041203 58 294 4.3 10.4 0.00 0.00 0.00 82 1012.3
20260506040202 58 257 6.1 12.2 0.00 0.00 0.00 81 1012.3
20260506035234 59 248 8.7 9.6 0.00 0.00 0.00 81 1012.3
20260506035202 59 248 8.7 9.6 0.00 0.00 0.00 81 1012.3
20260506034203 58 239 7.8 9.6 0.00 0.00 0.00 81 1012.3
20260506033202 58 252 6.1 8.7 0.00 0.00 0.00 80 1012.3
20260506032203 58 212 4.3 11.3 0.00 0.00 0.00 79 1012.2
20260506031233 58 225 4.3 10.4 0.00 0.00 0.00 78 1012.3
20260506031203 58 248 4.3 10.4 0.00 0.00 0.00 78 1012.4
20260506030232 59 238 5.2 9.6 0.00 0.00 0.00 76 1012.4
20260506030202 59 245 6.1 9.6 0.00 0.00 0.00 76 1012.3
20260506025204 59 263 5.2 7.0 0.00 0.00 0.00 75 1012.2
20260506024233 58 257 5.2 10.4 0.00 0.00 0.00 74 1012.1
20260506024203 59 228 7.0 11.3 0.00 0.00 0.00 74 1012.0
20260506023203 58 253 11.3 11.3 0.00 0.00 0.00 75 1011.9
20260506022204 58 259 5.2 11.3 0.00 0.00 0.00 75 1012.0
20260506021204 58 245 5.2 11.3 0.00 0.00 0.00 75 1012.0
20260506020203 58 255 3.5 10.4 0.00 0.00 0.00 75 1012.0
20260506015203 58 257 5.2 8.7 0.00 0.00 0.00 74 1012.0
20260506014204 58 266 5.2 8.7 0.00 0.00 0.00 74 1012.0
20260506013203 58 242 7.8 10.4 0.00 0.00 0.00 74 1011.9
20260506012203 57 248 4.3 9.6 0.00 0.00 0.00 74 1011.9
20260506011203 57 253 7.0 8.7 0.00 0.00 0.00 74 1011.9
20260506010203 57 249 7.0 10.4 0.00 0.00 0.00 73 1011.7
20260506005204 57 281 3.5 10.4 0.00 0.00 0.00 73 1011.6
20260506004204 57 229 6.1 11.3 0.00 0.00 0.00 73 1011.4
20260506003203 59 276 5.2 10.4 0.00 0.00 0.00 73 1011.2
20260506002204 60 264 9.6 13.9 0.00 0.00 0.00 73 1010.8
20260506001204 58 262 6.1 11.3 0.00 0.00 0.00 73 1010.5
20260506000204 59 232 8.7 13.0 0.00 0.00 0.00 73 1010.2
20260505235204 59 236 5.2 10.4 0.00 0.00 0.00 73 1009.6
20260505234204 59 266 5.2 9.6 0.00 0.00 0.00 73 1009.5
20260505233203 59 221 6.1 10.4 0.00 0.00 0.00 72 1009.7
20260505232203 59 235 7.0 12.2 0.00 0.00 0.00 72 1009.7